RA64535 UUWW-UHHH

Flight info

Callsign RA64535
Flight time N/A
Altitude 35000
Route N0440F350 OLMUN T629 IPSIL T830 LAMGU N604 HMN L870 PTG P138 LANAP W24 BIMTA N746 GU N992 TORMA A946 IVADA
Aircraft T204/M-VGDW/C

Departure

Time N/A
Airport Vnukovo International Airport (UUWW)

Arrival

Time 2026-04-08 03:42
Airport Khabarovsk Novy Airport (UHHH)
Time Latitude Longitude Altitude Speed Heading
2026-04-07 20:18 57.87880 49.07274 36660 ft 460 kts 72°
2026-04-07 20:18 57.90273 49.18418 36671 ft 459 kts 72°
2026-04-07 20:19 57.92654 49.29447 36672 ft 460 kts 71°
2026-04-07 20:19 57.95053 49.40550 36668 ft 460 kts 71°
2026-04-07 20:20 57.97470 49.51678 36660 ft 459 kts 71°
2026-04-07 20:20 57.99883 49.62761 36673 ft 460 kts 71°
2026-04-07 20:21 58.02250 49.73548 36670 ft 459 kts 71°
2026-04-07 20:21 58.04615 49.84335 36674 ft 459 kts 71°
2026-04-07 20:22 58.07065 49.95429 36675 ft 459 kts 71°
2026-04-07 20:22 58.09523 50.06535 36679 ft 460 kts 71°
2026-04-07 20:23 58.11997 50.17654 36679 ft 458 kts 70°
2026-04-07 20:23 58.14418 50.28510 36681 ft 459 kts 70°
2026-04-07 20:24 58.16820 50.39605 36708 ft 459 kts 72°
2026-04-07 20:24 58.19103 50.50901 36705 ft 459 kts 72°
2026-04-07 20:25 58.21356 50.62131 36705 ft 459 kts 72°
2026-04-07 20:25 58.23634 50.73380 36707 ft 459 kts 72°
2026-04-07 20:26 58.25933 50.84714 36704 ft 460 kts 72°
2026-04-07 20:26 58.28226 50.95961 36705 ft 460 kts 72°
2026-04-07 20:27 58.30527 51.07222 36699 ft 460 kts 72°
2026-04-07 20:27 58.32857 51.18554 36704 ft 460 kts 72°
2026-04-07 20:28 58.35166 51.29779 36711 ft 460 kts 72°
2026-04-07 20:28 58.37034 51.39274 36716 ft 460 kts 72°
2026-04-07 20:29 58.39653 51.52591 36715 ft 460 kts 72°
2026-04-07 20:29 58.41891 51.63919 36722 ft 460 kts 71°
2026-04-07 20:30 58.43883 51.73412 36721 ft 460 kts 71°
2026-04-07 20:30 58.46666 51.86583 36715 ft 460 kts 71°
2026-04-07 20:31 58.48717 51.96357 36726 ft 461 kts 71°
2026-04-07 20:31 58.50705 52.05790 36727 ft 460 kts 71°
2026-04-07 20:32 58.53465 52.19012 36726 ft 460 kts 71°
2026-04-07 20:32 58.55790 52.30408 36730 ft 460 kts 71°
2026-04-07 20:33 58.58108 52.41794 36736 ft 460 kts 71°
2026-04-07 20:33 58.60428 52.53157 36749 ft 460 kts 71°
2026-04-07 20:34 58.62752 52.64481 36750 ft 460 kts 70°
2026-04-07 20:34 58.65107 52.75906 36751 ft 459 kts 71°
2026-04-07 20:35 58.67396 52.87391 36754 ft 461 kts 72°
2026-04-07 20:35 58.69622 52.98829 36759 ft 461 kts 72°
2026-04-07 20:36 58.71852 53.10318 36759 ft 460 kts 71°
2026-04-07 20:36 58.74082 53.21765 36778 ft 460 kts 71°
2026-04-07 20:37 58.76333 53.33253 36779 ft 460 kts 71°
2026-04-07 20:37 58.78591 53.44761 36779 ft 459 kts 70°
2026-04-07 20:38 58.80861 53.56255 36779 ft 460 kts 70°
2026-04-07 20:38 58.83144 53.67776 36778 ft 461 kts 71°
2026-04-07 20:39 58.85394 53.79057 36788 ft 459 kts 71°
2026-04-07 20:39 58.87516 53.90650 36783 ft 458 kts 75°
2026-04-07 20:40 58.89359 54.02370 36783 ft 457 kts 75°
2026-04-07 20:40 58.91212 54.14099 36804 ft 458 kts 74°
2026-04-07 20:41 58.93076 54.25796 36792 ft 457 kts 74°
2026-04-07 20:41 58.94960 54.37541 36798 ft 458 kts 73°
2026-04-07 20:42 58.96851 54.49245 36796 ft 459 kts 73°
2026-04-07 20:42 58.98762 54.60995 36797 ft 458 kts 73°
2026-04-07 20:43 59.00662 54.72659 36795 ft 457 kts 74°
2026-04-07 20:43 59.01481 54.77884 36513 ft 458 kts 75°
2026-04-07 20:43 59.02447 54.84114 37058 ft 456 kts 74°
2026-04-07 20:44 59.03363 54.90029 36771 ft 461 kts 74°
2026-04-07 20:44 59.04287 54.95990 36826 ft 461 kts 74°
2026-04-07 20:44 59.06124 55.07806 36822 ft 460 kts 74°
2026-04-07 20:45 59.07951 55.19689 36829 ft 460 kts 74°
2026-04-07 20:45 59.09746 55.31580 36835 ft 460 kts 74°
2026-04-07 20:46 59.11548 55.43498 36827 ft 460 kts 73°
2026-04-07 20:46 59.13370 55.55525 36831 ft 461 kts 73°
2026-04-07 20:47 59.15185 55.67397 36820 ft 460 kts 74°
2026-04-07 20:47 59.16935 55.79388 36817 ft 461 kts 75°
2026-04-07 20:48 59.18626 55.91468 36812 ft 461 kts 75°
2026-04-07 20:48 59.20302 56.03483 36824 ft 462 kts 75°
2026-04-07 20:49 59.21986 56.15511 36822 ft 462 kts 75°
2026-04-07 20:49 59.23676 56.27525 36830 ft 463 kts 74°
2026-04-07 20:50 59.25399 56.39628 36819 ft 463 kts 74°
2026-04-07 20:50 59.27111 56.51634 36835 ft 464 kts 73°
2026-04-07 20:51 59.28851 56.63760 36828 ft 463 kts 73°
2026-04-07 20:51 59.30615 56.75902 36822 ft 465 kts 73°
2026-04-07 20:52 59.32367 56.87968 36821 ft 464 kts 73°
2026-04-07 20:52 59.34137 57.00087 36825 ft 464 kts 73°
2026-04-07 20:53 59.35917 57.12206 36823 ft 465 kts 74°
2026-04-07 20:53 59.37392 57.24514 36823 ft 465 kts 76°
2026-04-07 20:54 59.38820 57.36873 36825 ft 466 kts 75°
2026-04-07 20:54 59.40266 57.49184 36823 ft 464 kts 75°
2026-04-07 20:55 59.41712 57.61469 36723 ft 467 kts 75°
2026-04-07 20:55 59.43193 57.73854 36903 ft 468 kts 75°
2026-04-07 20:56 59.44673 57.86158 36927 ft 464 kts 75°
2026-04-07 20:56 59.45408 57.92250 36798 ft 465 kts 75°
2026-04-07 20:56 59.46150 57.98376 36826 ft 462 kts 75°
2026-04-07 20:57 59.47533 58.10728 36823 ft 463 kts 76°
2026-04-07 20:57 59.48871 58.23071 36830 ft 463 kts 76°
2026-04-07 20:58 59.50205 58.35361 36840 ft 463 kts 75°
2026-04-07 20:58 59.51555 58.47722 36845 ft 463 kts 75°
2026-04-07 20:59 59.52916 58.60086 36842 ft 463 kts 75°
2026-04-07 20:59 59.54279 58.72413 36842 ft 462 kts 76°
2026-04-07 21:00 59.56358 58.91002 36815 ft 463 kts 75°
2026-04-07 21:01 59.57751 59.03353 36795 ft 464 kts 75°
2026-04-07 21:01 59.59118 59.15723 36801 ft 464 kts 76°
2026-04-07 21:02 59.60265 59.28209 36814 ft 464 kts 78°
2026-04-07 21:02 59.61327 59.40739 36830 ft 465 kts 78°
2026-04-07 21:03 59.62382 59.53272 36850 ft 464 kts 77°
2026-04-07 21:03 59.63436 59.65797 36859 ft 464 kts 78°
2026-04-07 21:04 59.64515 59.78415 36852 ft 464 kts 78°
2026-04-07 21:04 59.65596 59.90929 36855 ft 465 kts 78°
2026-04-07 21:05 59.66680 60.03411 36867 ft 463 kts 78°
2026-04-07 21:05 59.67791 60.15950 36866 ft 465 kts 77°
2026-04-07 21:06 59.68910 60.28555 36863 ft 465 kts 77°
2026-04-07 21:06 59.70034 60.41032 36863 ft 465 kts 77°
2026-04-07 21:07 59.71171 60.53529 36859 ft 463 kts 76°
2026-04-07 21:07 59.72326 60.66047 36860 ft 462 kts 77°
2026-04-07 21:08 59.73492 60.78635 36855 ft 463 kts 77°
2026-04-07 21:08 59.74661 60.91114 36853 ft 463 kts 77°
2026-04-07 21:09 59.75851 61.03643 36860 ft 462 kts 76°
2026-04-07 21:09 59.77039 61.16040 36861 ft 462 kts 76°
2026-04-07 21:10 59.78249 61.28560 36864 ft 462 kts 76°
2026-04-07 21:10 59.79462 61.40983 36865 ft 461 kts 76°
2026-04-07 21:11 59.80693 61.53478 36863 ft 462 kts 76°
2026-04-07 21:11 59.81930 61.65954 36861 ft 461 kts 76°
2026-04-07 21:12 59.83186 61.78437 36857 ft 461 kts 76°
2026-04-07 21:12 59.84445 61.90829 36849 ft 461 kts 76°
2026-04-07 21:13 59.85717 62.03277 36848 ft 460 kts 75°
2026-04-07 21:13 59.86993 62.15637 36842 ft 460 kts 75°
2026-04-07 21:14 59.88291 62.28083 36838 ft 459 kts 75°
2026-04-07 21:14 59.89597 62.40487 36830 ft 460 kts 75°
2026-04-07 21:15 59.90641 62.52958 36826 ft 460 kts 78°
2026-04-07 21:15 59.91595 62.65532 36816 ft 460 kts 78°
2026-04-07 21:16 59.92565 62.77916 36809 ft 460 kts 78°
2026-04-07 21:16 59.93562 62.90476 36805 ft 459 kts 78°
2026-04-07 21:17 59.94567 63.02986 36804 ft 458 kts 78°
2026-04-07 21:17 59.95502 63.15501 36802 ft 459 kts 79°
2026-04-07 21:18 59.96396 63.28054 36797 ft 459 kts 79°
2026-04-07 21:18 59.97292 63.40604 36798 ft 459 kts 78°
2026-04-07 21:19 59.98207 63.53245 36797 ft 460 kts 78°
2026-04-07 21:19 59.99125 63.65766 36789 ft 459 kts 79°
2026-04-07 21:20 60.00064 63.78434 36782 ft 460 kts 79°
2026-04-07 21:20 60.01008 63.91049 36786 ft 459 kts 78°
2026-04-07 21:21 60.02235 64.03503 36786 ft 457 kts 73°
2026-04-07 21:21 60.03717 64.15775 36773 ft 459 kts 73°
2026-04-07 21:22 60.05179 64.28159 36777 ft 459 kts 73°
2026-04-07 21:22 60.06633 64.40516 36788 ft 458 kts 73°
2026-04-07 21:23 60.08091 64.52897 36790 ft 457 kts 73°
2026-04-07 21:23 60.09554 64.65218 36784 ft 457 kts 73°
2026-04-07 21:24 60.11031 64.77578 36776 ft 457 kts 73°
2026-04-07 21:24 60.13158 64.89430 36789 ft 450 kts 62°
2026-04-07 21:25 60.15640 65.00613 36777 ft 451 kts 63°
2026-04-07 21:25 60.18118 65.12099 36772 ft 451 kts 63°
2026-04-07 21:26 60.20577 65.23596 36773 ft 451 kts 63°
2026-04-07 21:26 60.23052 65.35165 36774 ft 452 kts 63°
2026-04-07 21:27 60.25542 65.46767 36766 ft 452 kts 62°
2026-04-07 21:27 60.28028 65.58273 36765 ft 451 kts 62°
2026-04-07 21:28 60.30528 65.69830 36767 ft 452 kts 63°
2026-04-07 21:28 60.33049 65.81443 36755 ft 452 kts 63°
2026-04-07 21:29 60.35572 65.93005 36757 ft 451 kts 62°
2026-04-07 21:29 60.38088 66.04506 36751 ft 451 kts 62°
2026-04-07 21:30 60.40636 66.16083 36742 ft 451 kts 62°
2026-04-07 21:30 60.43176 66.27579 36747 ft 451 kts 62°
2026-04-07 21:31 60.45729 66.39103 36746 ft 452 kts 62°
2026-04-07 21:31 60.48313 66.50725 36738 ft 452 kts 62°
2026-04-07 21:32 60.50888 66.62263 36744 ft 452 kts 62°
2026-04-07 21:32 60.53432 66.73609 36724 ft 451 kts 62°
2026-04-07 21:33 60.55982 66.84944 36727 ft 452 kts 62°
2026-04-07 21:33 60.58607 66.96552 36725 ft 452 kts 62°
2026-04-07 21:34 60.61224 67.08105 36733 ft 452 kts 62°
2026-04-07 21:34 60.63856 67.19662 36729 ft 452 kts 61°
2026-04-07 21:35 60.66489 67.31184 36732 ft 451 kts 61°
2026-04-07 21:35 60.69127 67.42700 36724 ft 451 kts 61°
2026-04-07 21:36 60.71788 67.54260 36728 ft 451 kts 61°
2026-04-07 21:36 60.74225 67.66090 36732 ft 452 kts 65°
2026-04-07 21:37 60.76587 67.78032 36715 ft 452 kts 65°
2026-04-07 21:37 60.78951 67.89900 36716 ft 453 kts 65°
2026-04-07 21:38 60.81322 68.01726 36719 ft 453 kts 64°
2026-04-07 21:38 60.83709 68.13593 36721 ft 452 kts 64°
2026-04-07 21:39 60.86122 68.25502 36712 ft 453 kts 64°
2026-04-07 21:39 60.88500 68.37371 36712 ft 453 kts 64°
2026-04-07 21:40 60.90833 68.49276 36710 ft 453 kts 65°
2026-04-07 21:40 60.93175 68.61266 36698 ft 454 kts 64°
2026-04-07 21:41 60.95526 68.73285 36691 ft 454 kts 65°
2026-04-07 21:41 60.97895 68.85348 36693 ft 453 kts 65°
2026-04-07 21:42 61.00262 68.97329 36675 ft 453 kts 65°
2026-04-07 21:42 61.02628 69.09256 36687 ft 453 kts 65°
2026-04-07 21:43 61.04367 69.21742 36723 ft 456 kts 75°
2026-04-07 21:43 61.05711 69.34573 36702 ft 456 kts 75°
2026-04-07 21:44 61.07051 69.47274 36704 ft 456 kts 75°
2026-04-07 21:44 61.08414 69.60042 36714 ft 455 kts 75°
2026-04-07 21:45 61.09790 69.72766 36706 ft 456 kts 75°
2026-04-07 21:45 61.11179 69.85507 36712 ft 456 kts 75°
2026-04-07 21:46 61.12503 69.97570 36709 ft 455 kts 75°
2026-04-07 21:46 61.13873 70.10479 36706 ft 457 kts 77°
2026-04-07 21:47 61.15081 70.23386 36700 ft 457 kts 77°
2026-04-07 21:47 61.16277 70.36195 36701 ft 456 kts 77°
2026-04-07 21:48 61.17488 70.49078 36698 ft 456 kts 76°
2026-04-07 21:48 61.18706 70.61886 36705 ft 456 kts 76°
2026-04-07 21:49 61.19949 70.74799 36688 ft 456 kts 77°
2026-04-07 21:49 61.21203 70.87724 36691 ft 458 kts 77°
2026-04-07 21:50 61.22407 71.00691 36684 ft 459 kts 78°
2026-04-07 21:50 61.23478 71.13686 36686 ft 459 kts 78°
2026-04-07 21:51 61.24531 71.26602 36686 ft 459 kts 78°
2026-04-07 21:51 61.25602 71.39629 36692 ft 459 kts 78°
2026-04-07 21:52 61.26684 71.52653 36697 ft 458 kts 78°
2026-04-07 21:52 61.27769 71.65567 36679 ft 457 kts 79°
2026-04-07 21:53 61.28878 71.78635 36680 ft 457 kts 78°
2026-04-07 21:53 61.29989 71.91602 36667 ft 458 kts 78°
2026-04-07 21:54 61.31122 72.04677 36665 ft 458 kts 78°
2026-04-07 21:54 61.32290 72.17595 36678 ft 458 kts 77°
2026-04-07 21:55 61.33481 72.30606 36693 ft 458 kts 77°
2026-04-07 21:55 61.34660 72.43593 36678 ft 459 kts 77°
2026-04-07 21:56 61.35841 72.56529 36681 ft 458 kts 77°
2026-04-07 21:56 61.37038 72.69501 36682 ft 458 kts 77°
2026-04-07 21:57 61.38244 72.82649 36672 ft 459 kts 78°
2026-04-07 21:57 61.39330 72.95709 36672 ft 459 kts 79°
2026-04-07 21:58 61.40378 73.08791 36670 ft 458 kts 79°
2026-04-07 21:58 61.41425 73.21912 36674 ft 459 kts 79°
2026-04-07 21:59 61.42479 73.34965 36660 ft 459 kts 78°
2026-04-07 21:59 61.43544 73.48022 36674 ft 460 kts 78°
2026-04-07 22:00 61.44630 73.61192 36670 ft 460 kts 78°
2026-04-07 22:00 61.45732 73.74335 36666 ft 461 kts 79°
2026-04-07 22:01 61.46849 73.87571 36675 ft 461 kts 79°
2026-04-07 22:01 61.47972 74.00703 36669 ft 462 kts 78°
2026-04-07 22:02 61.49106 74.13859 36673 ft 462 kts 78°
2026-04-07 22:02 61.50242 74.26965 36678 ft 460 kts 79°
2026-04-07 22:03 61.50972 74.40212 36672 ft 461 kts 83°
2026-04-07 22:03 61.51839 74.60265 36678 ft 462 kts 83°
2026-04-07 22:04 61.52412 74.73638 36668 ft 462 kts 84°
2026-04-07 22:04 61.52995 74.87035 36680 ft 462 kts 84°
2026-04-07 22:05 61.53592 75.00417 36670 ft 462 kts 84°
2026-04-07 22:05 61.54191 75.13683 36671 ft 463 kts 83°
2026-04-07 22:06 61.54815 75.27080 36673 ft 462 kts 83°
2026-04-07 22:06 61.55443 75.40412 36675 ft 463 kts 83°
2026-04-07 22:07 61.56090 75.53809 36695 ft 462 kts 83°
2026-04-07 22:07 61.56751 75.67139 36682 ft 462 kts 83°
2026-04-07 22:08 61.57427 75.80554 36684 ft 462 kts 83°
2026-04-07 22:08 61.58114 75.93924 36669 ft 462 kts 83°
2026-04-07 22:09 61.58810 76.07256 36672 ft 463 kts 83°
2026-04-07 22:09 61.59521 76.20602 36681 ft 463 kts 83°
2026-04-07 22:10 61.60242 76.33957 36675 ft 463 kts 82°
2026-04-07 22:10 61.60982 76.47347 36678 ft 463 kts 82°
2026-04-07 22:11 61.61734 76.60720 36672 ft 462 kts 82°
2026-04-07 22:11 61.62498 76.74074 36667 ft 462 kts 82°
2026-04-07 22:12 61.63277 76.87452 36666 ft 462 kts 82°
2026-04-07 22:12 61.64065 77.00816 36669 ft 462 kts 82°
2026-04-07 22:13 61.64867 77.14159 36672 ft 463 kts 82°
2026-04-07 22:13 61.65682 77.27504 36689 ft 463 kts 81°
2026-04-07 22:14 61.66515 77.40929 36687 ft 463 kts 81°
2026-04-07 22:14 61.67147 77.54285 36687 ft 463 kts 85°
2026-04-07 22:15 61.67572 77.67750 36686 ft 463 kts 85°
2026-04-07 22:15 61.68038 77.81323 36684 ft 463 kts 85°
2026-04-07 22:16 61.68411 77.94833 36689 ft 464 kts 88°
2026-04-07 22:16 61.68537 78.08383 36687 ft 465 kts 89°
2026-04-07 22:17 61.68582 78.21962 36686 ft 465 kts 89°
2026-04-07 22:17 61.68616 78.35541 36689 ft 465 kts 89°
2026-04-07 22:18 61.68658 78.49011 36691 ft 465 kts 89°
2026-04-07 22:18 61.68717 78.62603 36692 ft 465 kts 88°
2026-04-07 22:19 61.68787 78.76245 36689 ft 465 kts 89°
2026-04-07 22:19 61.68869 78.89817 36698 ft 466 kts 89°
2026-04-07 22:20 61.68963 79.03385 36695 ft 467 kts 89°
2026-04-07 22:20 61.69075 79.17054 36702 ft 467 kts 88°
2026-04-07 22:21 61.69199 79.30660 36690 ft 468 kts 88°
2026-04-07 22:21 61.69336 79.44304 36702 ft 467 kts 88°
2026-04-07 22:22 61.69487 79.57879 36720 ft 468 kts 88°
2026-04-07 22:22 61.69656 79.71574 36718 ft 469 kts 88°
2026-04-07 22:23 61.69833 79.85282 36719 ft 468 kts 88°
2026-04-07 22:23 61.70021 79.98934 36726 ft 468 kts 88°
2026-04-07 22:24 61.70224 80.12603 36729 ft 469 kts 88°
2026-04-07 22:24 61.70443 80.26276 36731 ft 469 kts 87°
2026-04-07 22:25 61.70677 80.39883 36739 ft 468 kts 87°
2026-04-07 22:25 61.70922 80.53535 36736 ft 469 kts 87°
2026-04-07 22:26 61.71182 80.67250 36741 ft 470 kts 87°
2026-04-07 22:26 61.71458 80.81026 36739 ft 470 kts 87°
2026-04-07 22:27 61.71748 80.94759 36745 ft 470 kts 87°
2026-04-07 22:27 61.72051 81.08524 36737 ft 471 kts 86°
2026-04-07 22:28 61.72365 81.22198 36743 ft 470 kts 86°
2026-04-07 22:28 61.72691 81.35891 36738 ft 471 kts 86°
2026-04-07 22:29 61.73036 81.49599 36751 ft 470 kts 85°
2026-04-07 22:29 61.73392 81.63371 36762 ft 471 kts 85°
2026-04-07 22:30 61.73766 81.77107 36746 ft 472 kts 86°
2026-04-07 22:30 61.74150 81.90910 36758 ft 471 kts 85°
2026-04-07 22:31 61.74552 82.04648 36760 ft 471 kts 85°
2026-04-07 22:31 61.74960 82.18363 36770 ft 471 kts 85°
2026-04-07 22:32 61.75385 82.32113 36768 ft 471 kts 85°
2026-04-07 22:32 61.75826 82.45815 36770 ft 472 kts 84°
2026-04-07 22:33 61.76282 82.59543 36779 ft 472 kts 84°
2026-04-07 22:33 61.76747 82.73209 36772 ft 472 kts 85°
2026-04-07 22:34 61.77009 82.87207 36764 ft 472 kts 90°
2026-04-07 22:34 61.76913 83.00965 36768 ft 473 kts 90°
2026-04-07 22:35 61.76839 83.14796 36769 ft 472 kts 89°
2026-04-07 22:35 61.76782 83.28645 36781 ft 473 kts 89°
2026-04-07 22:36 61.76748 83.42485 36776 ft 473 kts 89°
2026-04-07 22:36 61.76725 83.56279 36783 ft 473 kts 89°
2026-04-07 22:37 61.76556 83.70151 36780 ft 474 kts 92°
2026-04-07 22:37 61.76202 83.84010 36782 ft 474 kts 92°
2026-04-07 22:38 61.75799 83.97832 36782 ft 474 kts 93°
2026-04-07 22:38 61.75399 84.11580 36779 ft 474 kts 92°
2026-04-07 22:39 61.75010 84.25427 36787 ft 474 kts 92°
2026-04-07 22:39 61.74632 84.39307 36783 ft 474 kts 92°
2026-04-07 22:40 61.74268 84.53130 36791 ft 475 kts 91°
2026-04-07 22:40 61.73925 84.66953 36797 ft 476 kts 92°
2026-04-07 22:41 61.73591 84.80845 36793 ft 475 kts 92°
2026-04-07 22:41 61.73266 84.94639 36794 ft 475 kts 92°
2026-04-07 22:42 61.72962 85.08521 36800 ft 476 kts 91°
2026-04-07 22:42 61.72668 85.22392 36809 ft 476 kts 91°
2026-04-07 22:43 61.72383 85.36321 36813 ft 476 kts 91°
2026-04-07 22:43 61.72122 85.50127 36818 ft 475 kts 90°
2026-04-07 22:44 61.71870 85.64053 36823 ft 476 kts 90°
2026-04-07 22:44 61.71634 85.77917 36819 ft 476 kts 91°
2026-04-07 22:45 61.71409 85.91809 36815 ft 477 kts 90°
2026-04-07 22:45 61.71198 86.05754 36817 ft 478 kts 90°
2026-04-07 22:46 61.71004 86.19733 36813 ft 478 kts 90°
2026-04-07 22:46 61.70820 86.33661 36816 ft 477 kts 89°
2026-04-07 22:47 61.70655 86.47552 36819 ft 477 kts 89°
2026-04-07 22:47 61.70502 86.61462 36812 ft 478 kts 89°
2026-04-07 22:48 61.70365 86.75372 36825 ft 477 kts 90°
2026-04-07 22:48 61.70236 86.89298 36829 ft 478 kts 89°
2026-04-07 22:49 61.70128 87.03276 36827 ft 478 kts 89°
2026-04-07 22:49 61.70029 87.17234 36832 ft 478 kts 89°
2026-04-07 22:50 61.69944 87.31104 36836 ft 478 kts 88°
2026-04-07 22:50 61.69877 87.45059 36838 ft 478 kts 88°
2026-04-07 22:51 61.69758 87.59049 36829 ft 479 kts 91°
2026-04-07 22:51 61.69208 87.72965 36828 ft 479 kts 94°
2026-04-07 22:52 61.68623 87.86881 36831 ft 479 kts 94°
2026-04-07 22:52 61.68051 88.00709 36841 ft 480 kts 93°
2026-04-07 22:53 61.67491 88.14645 36835 ft 479 kts 93°
2026-04-07 22:53 61.66947 88.28516 36839 ft 478 kts 92°
2026-04-07 22:54 61.66420 88.42506 36844 ft 479 kts 92°
2026-04-07 22:54 61.65900 88.56415 36845 ft 479 kts 92°
2026-04-07 22:55 61.65405 88.70286 36846 ft 480 kts 92°
2026-04-07 22:55 61.64911 88.84358 36830 ft 479 kts 92°
2026-04-07 22:56 61.64436 88.98222 36838 ft 480 kts 92°
2026-04-07 22:56 61.63918 89.12173 36834 ft 479 kts 94°
2026-04-07 22:57 61.63266 89.26035 36853 ft 480 kts 93°
2026-04-07 22:57 61.62618 89.39873 36861 ft 480 kts 93°
2026-04-07 22:58 61.61978 89.53804 36866 ft 480 kts 93°
2026-04-07 22:58 61.61353 89.67700 36871 ft 480 kts 94°
2026-04-07 22:59 61.60737 89.81671 36869 ft 480 kts 93°
2026-04-07 22:59 61.60131 89.95632 36860 ft 481 kts 93°
2026-04-07 23:00 61.59433 90.09535 36854 ft 482 kts 96°
2026-04-07 23:00 61.58261 90.23274 36869 ft 482 kts 99°
2026-04-07 23:01 61.56928 90.36985 36869 ft 482 kts 99°
2026-04-07 23:02 61.54895 90.57512 36868 ft 482 kts 99°
2026-04-07 23:02 61.53551 90.71267 36852 ft 481 kts 100°
2026-04-07 23:03 61.52214 90.84982 36859 ft 482 kts 100°
2026-04-07 23:03 61.50892 90.98700 36876 ft 482 kts 99°
2026-04-07 23:04 61.49593 91.12310 36882 ft 482 kts 99°
2026-04-07 23:04 61.48294 91.26072 36881 ft 483 kts 99°
2026-04-07 23:05 61.47020 91.39776 36885 ft 481 kts 98°
2026-04-07 23:05 61.45763 91.53385 36897 ft 481 kts 98°
2026-04-07 23:06 61.44513 91.67108 36878 ft 482 kts 99°
2026-04-07 23:06 61.43276 91.80821 36850 ft 482 kts 98°
2026-04-07 23:07 61.42056 91.94467 36845 ft 481 kts 98°
2026-04-07 23:07 61.40847 92.08162 36862 ft 481 kts 98°
2026-04-07 23:08 61.39662 92.21790 36849 ft 481 kts 98°
2026-04-07 23:08 61.38476 92.35525 36853 ft 480 kts 97°
2026-04-07 23:09 61.37340 92.48830 36858 ft 480 kts 97°
2026-04-07 23:09 61.36191 92.62506 36885 ft 480 kts 96°
2026-04-07 23:10 61.35061 92.76122 36896 ft 480 kts 97°
2026-04-07 23:10 61.33935 92.89784 36871 ft 479 kts 97°
2026-04-07 23:11 61.32828 93.03445 36834 ft 480 kts 97°
2026-04-07 23:11 61.31734 93.17076 36860 ft 480 kts 96°
2026-04-07 23:12 61.30654 93.30704 36901 ft 480 kts 96°
2026-04-07 23:12 61.29594 93.44293 36885 ft 479 kts 96°
2026-04-07 23:13 61.28540 93.57947 36883 ft 480 kts 96°
2026-04-07 23:13 61.27510 93.71536 36888 ft 480 kts 96°
2026-04-07 23:14 61.26472 93.85247 36882 ft 479 kts 96°
2026-04-07 23:14 61.25462 93.98882 36883 ft 478 kts 95°
2026-04-07 23:15 61.24470 94.12463 36882 ft 478 kts 95°
2026-04-07 23:15 61.23496 94.25988 36875 ft 479 kts 95°
2026-04-07 23:16 61.22525 94.39615 36863 ft 479 kts 95°
2026-04-07 23:16 61.21571 94.53216 36841 ft 478 kts 95°
2026-04-07 23:17 61.20628 94.66871 36864 ft 478 kts 95°
2026-04-07 23:17 61.19730 94.80099 36882 ft 478 kts 95°
2026-04-07 23:18 61.18807 94.93826 36887 ft 478 kts 95°
2026-04-07 23:18 61.18048 95.05260 36885 ft 478 kts 94°
2026-04-07 23:19 61.17040 95.20693 36879 ft 479 kts 94°
2026-04-07 23:19 61.16394 95.30795 36883 ft 478 kts 94°
2026-04-07 23:20 61.15529 95.44349 36896 ft 477 kts 93°
2026-04-07 23:20 61.14687 95.57921 36901 ft 479 kts 93°
2026-04-07 23:21 61.13857 95.71524 36894 ft 479 kts 94°
2026-04-07 23:21 61.13023 95.85294 36891 ft 477 kts 94°
2026-04-07 23:22 61.12219 95.98849 36870 ft 476 kts 93°
2026-04-07 23:22 61.11425 96.12347 36871 ft 476 kts 93°
2026-04-07 23:23 61.10686 96.25194 36879 ft 477 kts 93°
2026-04-07 23:23 61.09929 96.38728 36899 ft 477 kts 92°
2026-04-07 23:24 61.08905 96.52264 36904 ft 479 kts 100°
2026-04-07 23:24 61.07165 96.65564 36920 ft 481 kts 104°
2026-04-07 23:25 61.05264 96.78871 36933 ft 482 kts 104°
2026-04-07 23:25 61.03414 96.91702 36938 ft 481 kts 104°
2026-04-07 23:26 61.01521 97.04863 36946 ft 480 kts 104°
2026-04-07 23:26 60.99646 97.18037 36932 ft 481 kts 103°
2026-04-07 23:27 60.98093 97.28999 36934 ft 481 kts 103°
2026-04-07 23:27 60.95927 97.44453 36897 ft 481 kts 103°
2026-04-07 23:28 60.94091 97.57568 36882 ft 480 kts 102°
2026-04-07 23:28 60.92278 97.70673 36863 ft 481 kts 103°
2026-04-07 23:29 60.90442 97.83991 36835 ft 480 kts 103°
2026-04-07 23:29 60.88655 97.97092 36837 ft 480 kts 103°
2026-04-07 23:30 60.86852 98.10362 36838 ft 480 kts 102°
2026-04-07 23:30 60.85091 98.23432 36858 ft 479 kts 102°
2026-04-07 23:31 60.83331 98.36614 36857 ft 479 kts 102°
2026-04-07 23:31 60.81588 98.49714 36840 ft 479 kts 102°
2026-04-07 23:32 60.79866 98.62792 36846 ft 479 kts 101°
2026-04-07 23:32 60.78151 98.75936 36833 ft 478 kts 102°
2026-04-07 23:33 60.76448 98.89044 36847 ft 477 kts 102°
2026-04-07 23:33 60.74759 99.02157 36868 ft 477 kts 101°
2026-04-07 23:34 60.73371 99.13018 36873 ft 479 kts 101°
2026-04-07 23:34 60.71426 99.28333 36870 ft 480 kts 101°
2026-04-07 23:35 60.69781 99.41423 36876 ft 479 kts 101°
2026-04-07 23:35 60.68145 99.54511 36871 ft 478 kts 101°
2026-04-07 23:36 60.66527 99.67578 36872 ft 477 kts 101°
2026-04-07 23:36 60.64916 99.80695 36862 ft 479 kts 101°
2026-04-07 23:37 60.63315 99.93809 36868 ft 478 kts 101°
2026-04-07 23:37 60.61730 100.06931 36867 ft 479 kts 101°
2026-04-07 23:38 60.60166 100.19935 36858 ft 478 kts 100°
2026-04-07 23:38 60.58611 100.33065 36864 ft 477 kts 100°
2026-04-07 23:39 60.57066 100.46136 36876 ft 478 kts 100°
2026-04-07 23:39 60.55547 100.59113 36858 ft 477 kts 99°
2026-04-07 23:40 60.54030 100.72199 36853 ft 477 kts 100°
2026-04-07 23:40 60.52524 100.85281 36861 ft 478 kts 100°
2026-04-07 23:41 60.51004 100.98594 36860 ft 477 kts 100°
2026-04-07 23:41 60.49533 101.11605 36876 ft 478 kts 99°
2026-04-07 23:42 60.48057 101.24730 36848 ft 478 kts 99°
2026-04-07 23:42 60.46617 101.37744 36861 ft 476 kts 99°
2026-04-07 23:43 60.45174 101.50827 36875 ft 477 kts 99°
2026-04-07 23:43 60.43761 101.63811 36866 ft 476 kts 98°
2026-04-07 23:44 60.42337 101.76947 36867 ft 476 kts 99°
2026-04-07 23:44 60.40927 101.90065 36879 ft 477 kts 99°
2026-04-07 23:45 60.39559 102.02956 36880 ft 477 kts 98°
2026-04-07 23:45 60.38187 102.16016 36883 ft 476 kts 98°
2026-04-07 23:46 60.36826 102.29050 36871 ft 475 kts 98°
2026-04-07 23:46 60.35058 102.41931 36886 ft 478 kts 103°
2026-04-07 23:47 60.33147 102.54738 36875 ft 476 kts 103°
2026-04-07 23:47 60.31265 102.67503 36868 ft 477 kts 104°
2026-04-07 23:48 60.29395 102.80325 36864 ft 477 kts 104°
2026-04-07 23:48 60.27540 102.93141 36856 ft 476 kts 103°
2026-04-07 23:49 60.25681 103.05965 36868 ft 477 kts 104°
2026-04-07 23:49 60.23683 103.18604 36871 ft 476 kts 105°
2026-04-07 23:50 60.21627 103.31176 36864 ft 476 kts 105°
2026-04-07 23:50 60.19908 103.41647 36866 ft 477 kts 105°
2026-04-07 23:51 60.17515 103.56291 36860 ft 475 kts 105°
2026-04-07 23:51 60.15471 103.68875 36857 ft 475 kts 105°
2026-04-07 23:52 60.13427 103.81533 36855 ft 475 kts 105°
2026-04-07 23:52 60.11407 103.94099 36861 ft 475 kts 105°
2026-04-07 23:53 60.09409 104.06596 36858 ft 474 kts 104°
2026-04-07 23:53 60.07417 104.19131 36853 ft 474 kts 104°
2026-04-07 23:54 60.05441 104.31653 36852 ft 473 kts 104°
2026-04-07 23:54 60.03489 104.44093 36863 ft 473 kts 104°
2026-04-07 23:55 60.01546 104.56546 36865 ft 472 kts 104°
2026-04-07 23:55 59.99606 104.69061 36854 ft 473 kts 104°
2026-04-07 23:56 59.97668 104.81651 36836 ft 472 kts 104°
2026-04-07 23:56 59.95752 104.94157 36845 ft 472 kts 104°
2026-04-07 23:57 59.93856 105.06618 36834 ft 472 kts 104°
2026-04-07 23:57 59.91968 105.19098 36821 ft 471 kts 103°
2026-04-07 23:58 59.90053 105.31560 36812 ft 472 kts 106°
2026-04-07 23:58 59.87674 105.43663 36816 ft 473 kts 110°
2026-04-07 23:59 59.85066 105.55717 36814 ft 473 kts 110°
2026-04-07 23:59 59.82452 105.67614 36804 ft 473 kts 111°
2026-04-08 00:00 59.79815 105.79607 36801 ft 473 kts 111°
2026-04-08 00:00 59.77195 105.91528 36787 ft 473 kts 111°
2026-04-08 00:01 59.74594 106.03442 36769 ft 474 kts 111°
2026-04-08 00:01 59.71997 106.15369 36772 ft 474 kts 110°
2026-04-08 00:02 59.69416 106.27306 36777 ft 474 kts 110°
2026-04-08 00:02 59.66840 106.39266 36786 ft 474 kts 110°
2026-04-08 00:03 59.64272 106.51215 36805 ft 474 kts 110°
2026-04-08 00:03 59.60445 106.69144 36800 ft 475 kts 111°
2026-04-08 00:04 59.57885 106.81184 36809 ft 475 kts 110°
2026-04-08 00:04 59.55358 106.93127 36801 ft 476 kts 110°
2026-04-08 00:05 59.52831 107.05140 36793 ft 475 kts 110°
2026-04-08 00:05 59.50326 107.17075 36811 ft 474 kts 110°
2026-04-08 00:06 59.47831 107.29039 36821 ft 474 kts 109°
2026-04-08 00:06 59.45347 107.40985 36805 ft 474 kts 109°
2026-04-08 00:07 59.42879 107.52916 36784 ft 473 kts 109°
2026-04-08 00:07 59.40418 107.64852 36783 ft 473 kts 109°
2026-04-08 00:08 59.37977 107.76797 36779 ft 472 kts 110°
2026-04-08 00:08 59.35535 107.88763 36793 ft 473 kts 110°
2026-04-08 00:09 59.33119 108.00635 36806 ft 472 kts 109°
2026-04-08 00:09 59.30702 108.12581 36809 ft 472 kts 109°
2026-04-08 00:10 59.28313 108.24448 36812 ft 471 kts 109°
2026-04-08 00:10 59.25927 108.36346 36806 ft 471 kts 108°
2026-04-08 00:11 59.23574 108.48150 36790 ft 471 kts 108°
2026-04-08 00:11 59.21212 108.60054 36781 ft 471 kts 108°
2026-04-08 00:12 59.18870 108.71907 36761 ft 472 kts 109°
2026-04-08 00:12 59.16512 108.83891 36753 ft 472 kts 109°
2026-04-08 00:13 59.14175 108.95827 36757 ft 472 kts 108°
2026-04-08 00:13 59.11858 109.07713 36762 ft 471 kts 108°
2026-04-08 00:14 59.09556 109.19583 36763 ft 471 kts 108°
2026-04-08 00:14 59.07263 109.31457 36763 ft 470 kts 108°
2026-04-08 00:15 59.04984 109.43331 36753 ft 470 kts 108°
2026-04-08 00:15 59.02720 109.55169 36739 ft 469 kts 107°
2026-04-08 00:16 59.00467 109.67005 36752 ft 469 kts 108°
2026-04-08 00:16 58.98210 109.78937 36750 ft 469 kts 108°
2026-04-08 00:17 58.95978 109.90765 36743 ft 470 kts 108°
2026-04-08 00:17 58.93751 110.02638 36738 ft 469 kts 108°
2026-04-08 00:18 58.91553 110.14447 36732 ft 470 kts 107°
2026-04-08 00:18 58.89348 110.26314 36716 ft 470 kts 107°
2026-04-08 00:19 58.87155 110.38166 36717 ft 469 kts 107°
2026-04-08 00:19 58.84948 110.50175 36732 ft 468 kts 107°
2026-04-08 00:20 58.82791 110.61968 36732 ft 468 kts 107°
2026-04-08 00:20 58.80636 110.73826 36720 ft 467 kts 107°
2026-04-08 00:21 58.78481 110.85696 36741 ft 467 kts 107°
2026-04-08 00:21 58.76352 110.97518 36770 ft 468 kts 107°
2026-04-08 00:22 58.74243 111.09299 36780 ft 469 kts 107°
2026-04-08 00:22 58.72133 111.21132 36757 ft 469 kts 107°
2026-04-08 00:23 58.70036 111.32941 36750 ft 468 kts 107°
2026-04-08 00:23 58.67963 111.44694 36752 ft 468 kts 106°
2026-04-08 00:24 58.65639 111.56361 36754 ft 470 kts 114°
2026-04-08 00:24 58.62774 111.67551 36753 ft 471 kts 115°
2026-04-08 00:25 58.59901 111.78847 36762 ft 470 kts 115°
2026-04-08 00:25 58.57059 111.90084 36742 ft 471 kts 114°
2026-04-08 00:26 58.54208 112.01356 36739 ft 471 kts 115°
2026-04-08 00:26 58.51333 112.12485 36687 ft 471 kts 115°
2026-04-08 00:27 58.48424 112.23715 36619 ft 471 kts 115°
2026-04-08 00:27 58.45561 112.34819 36628 ft 470 kts 115°
2026-04-08 00:28 58.42688 112.45988 36655 ft 470 kts 115°
2026-04-08 00:28 58.39771 112.57096 36672 ft 470 kts 115°
2026-04-08 00:29 58.36842 112.68218 36658 ft 470 kts 116°
2026-04-08 00:29 58.33923 112.79313 36663 ft 470 kts 116°
2026-04-08 00:30 58.31020 112.90356 36665 ft 469 kts 117°
2026-04-08 00:30 58.27650 113.01008 36680 ft 470 kts 121°
2026-04-08 00:31 58.24234 113.11464 36681 ft 471 kts 121°
2026-04-08 00:31 58.20820 113.21992 36675 ft 470 kts 121°
2026-04-08 00:32 58.17416 113.32529 36682 ft 469 kts 121°
2026-04-08 00:32 58.14010 113.43001 36659 ft 469 kts 121°
2026-04-08 00:33 58.10603 113.53436 36618 ft 469 kts 121°
2026-04-08 00:33 58.07140 113.63909 36649 ft 470 kts 121°
2026-04-08 00:34 58.03657 113.74352 36675 ft 470 kts 122°
2026-04-08 00:34 58.00169 113.84782 36694 ft 470 kts 122°
2026-04-08 00:35 57.96692 113.95207 36681 ft 470 kts 122°
2026-04-08 00:35 57.93244 114.05566 36681 ft 470 kts 122°
2026-04-08 00:36 57.89791 114.15974 36693 ft 470 kts 122°
2026-04-08 00:36 57.86718 114.26739 36687 ft 469 kts 110°
2026-04-08 00:37 57.84440 114.38268 36644 ft 470 kts 109°
2026-04-08 00:37 57.82190 114.49702 36598 ft 469 kts 109°
2026-04-08 00:38 57.79955 114.61060 36586 ft 468 kts 108°
2026-04-08 00:38 57.77700 114.72527 36609 ft 468 kts 109°
2026-04-08 00:39 57.75457 114.83961 36634 ft 470 kts 109°
2026-04-08 00:39 57.73228 114.95390 36619 ft 470 kts 109°
2026-04-08 00:40 57.70979 115.06892 36623 ft 469 kts 110°
2026-04-08 00:40 57.68634 115.18172 36682 ft 471 kts 110°
2026-04-08 00:41 57.66230 115.29500 36724 ft 470 kts 110°
2026-04-08 00:41 57.63830 115.40803 36690 ft 470 kts 110°
2026-04-08 00:42 57.61447 115.52065 36688 ft 469 kts 110°
2026-04-08 00:42 57.59055 115.63403 36665 ft 470 kts 110°
2026-04-08 00:43 57.56683 115.74717 36618 ft 469 kts 111°
2026-04-08 00:43 57.54330 115.85963 36605 ft 468 kts 110°
2026-04-08 00:44 57.51976 115.97272 36607 ft 468 kts 110°
2026-04-08 00:44 57.49653 116.08482 36593 ft 468 kts 110°
2026-04-08 00:45 57.47328 116.19756 36593 ft 470 kts 110°
2026-04-08 00:45 57.45008 116.31058 36600 ft 470 kts 110°
2026-04-08 00:46 57.42695 116.42360 36613 ft 468 kts 110°
2026-04-08 00:46 57.40400 116.53625 36639 ft 469 kts 109°
2026-04-08 00:47 57.37665 116.64504 36597 ft 469 kts 122°
2026-04-08 00:47 57.33968 116.74490 36544 ft 469 kts 126°
2026-04-08 00:48 57.30132 116.84270 36531 ft 469 kts 127°
2026-04-08 00:48 57.26307 116.93967 36507 ft 468 kts 127°
2026-04-08 00:49 57.22509 117.03596 36474 ft 468 kts 127°
2026-04-08 00:49 57.18692 117.13285 36451 ft 467 kts 127°
2026-04-08 00:50 57.14877 117.22987 36397 ft 468 kts 127°
2026-04-08 00:50 57.11092 117.32633 36381 ft 467 kts 126°
2026-04-08 00:51 57.07317 117.42275 36437 ft 468 kts 126°
2026-04-08 00:51 57.03521 117.51993 36493 ft 469 kts 126°
2026-04-08 00:52 56.99733 117.61714 36427 ft 470 kts 126°
2026-04-08 00:52 56.95940 117.71453 36387 ft 470 kts 127°
2026-04-08 00:53 56.92151 117.81206 36398 ft 469 kts 126°
2026-04-08 00:53 56.88409 117.90869 36453 ft 471 kts 126°
2026-04-08 00:54 56.84628 118.00624 36520 ft 470 kts 126°
2026-04-08 00:54 56.80868 118.10362 36556 ft 469 kts 126°
2026-04-08 00:55 56.77146 118.20038 36568 ft 468 kts 126°
2026-04-08 00:55 56.73426 118.29716 36544 ft 468 kts 125°
2026-04-08 00:56 56.69714 118.39386 36511 ft 468 kts 125°
2026-04-08 00:56 56.65999 118.49106 36458 ft 468 kts 125°
2026-04-08 00:57 56.62313 118.58750 36414 ft 467 kts 125°
2026-04-08 00:57 56.58640 118.68386 36367 ft 466 kts 126°
2026-04-08 00:58 56.54946 118.78095 36380 ft 467 kts 126°
2026-04-08 00:58 56.51280 118.87749 36353 ft 467 kts 126°
2026-04-08 00:59 56.47635 118.97366 36331 ft 467 kts 126°
2026-04-08 00:59 56.43986 119.07019 36353 ft 466 kts 125°
2026-04-08 01:00 56.40348 119.16666 36355 ft 467 kts 125°
2026-04-08 01:00 56.36707 119.26330 36365 ft 467 kts 125°
2026-04-08 01:01 56.33074 119.36001 36385 ft 468 kts 125°
2026-04-08 01:01 56.29451 119.45658 36438 ft 467 kts 125°
2026-04-08 01:02 56.25837 119.55315 36465 ft 467 kts 125°
2026-04-08 01:02 56.22215 119.65010 36466 ft 468 kts 126°
2026-04-08 01:03 56.18619 119.74663 36459 ft 469 kts 126°
2026-04-08 01:04 56.13193 119.89257 36452 ft 470 kts 125°
2026-04-08 01:04 56.09606 119.98929 36449 ft 470 kts 125°
2026-04-08 01:05 56.06012 120.08654 36450 ft 469 kts 125°
2026-04-08 01:05 56.02424 120.18388 36462 ft 470 kts 125°
2026-04-08 01:06 55.98832 120.28126 36504 ft 470 kts 124°
2026-04-08 01:06 55.95277 120.37801 36507 ft 471 kts 124°
2026-04-08 01:07 55.91689 120.47582 36506 ft 471 kts 124°
2026-04-08 01:07 55.88046 120.57194 36503 ft 469 kts 128°
2026-04-08 01:08 55.84110 120.66487 36499 ft 468 kts 129°
2026-04-08 01:08 55.80235 120.75605 36503 ft 469 kts 129°
2026-04-08 01:09 55.76337 120.84799 36519 ft 469 kts 129°
2026-04-08 01:09 55.72412 120.94081 36544 ft 470 kts 129°
2026-04-08 01:10 55.68502 121.03346 36547 ft 470 kts 129°
2026-04-08 01:10 55.64595 121.12610 36551 ft 470 kts 129°
2026-04-08 01:11 55.60724 121.21813 36545 ft 469 kts 128°
2026-04-08 01:11 55.56864 121.31005 36532 ft 469 kts 128°
2026-04-08 01:12 55.52997 121.40231 36520 ft 469 kts 128°
2026-04-08 01:12 55.49114 121.49508 36502 ft 471 kts 128°
2026-04-08 01:13 55.45261 121.58732 36503 ft 470 kts 128°
2026-04-08 01:13 55.41305 121.67868 36507 ft 470 kts 130°
2026-04-08 01:14 55.37323 121.76981 36510 ft 470 kts 130°
2026-04-08 01:14 55.33333 121.86104 36516 ft 470 kts 130°
2026-04-08 01:15 55.29391 121.95133 36511 ft 470 kts 130°
2026-04-08 01:15 55.25434 122.04213 36500 ft 471 kts 129°
2026-04-08 01:16 55.21465 122.13336 36491 ft 471 kts 129°
2026-04-08 01:16 55.17527 122.22407 36487 ft 471 kts 129°
2026-04-08 01:17 55.13563 122.31433 36467 ft 471 kts 130°
2026-04-08 01:17 55.09515 122.40388 36474 ft 470 kts 130°
2026-04-08 01:18 55.05479 122.49294 36460 ft 469 kts 130°
2026-04-08 01:18 55.01445 122.58197 36459 ft 469 kts 130°
2026-04-08 01:19 54.97415 122.67110 36472 ft 468 kts 131°
2026-04-08 01:19 54.93385 122.76039 36465 ft 468 kts 131°
2026-04-08 01:20 54.89356 122.84974 36441 ft 468 kts 131°
2026-04-08 01:20 54.85360 122.93860 36420 ft 468 kts 130°
2026-04-08 01:21 54.81365 123.02744 36389 ft 467 kts 130°
2026-04-08 01:21 54.77366 123.11661 36382 ft 468 kts 130°
2026-04-08 01:22 54.73355 123.20445 36389 ft 469 kts 132°
2026-04-08 01:22 54.69934 123.27663 36406 ft 470 kts 132°
2026-04-08 01:23 54.65072 123.37835 36404 ft 470 kts 132°
2026-04-08 01:23 54.60954 123.46455 36397 ft 470 kts 132°
2026-04-08 01:24 54.56803 123.55145 36399 ft 470 kts 132°
2026-04-08 01:24 54.52664 123.63824 36385 ft 470 kts 132°
2026-04-08 01:25 54.48530 123.72510 36386 ft 471 kts 133°
2026-04-08 01:25 54.44379 123.81237 36393 ft 472 kts 132°
2026-04-08 01:26 54.40259 123.89922 36410 ft 473 kts 133°
2026-04-08 01:26 54.36125 123.98645 36402 ft 472 kts 132°
2026-04-08 01:27 54.32012 124.07332 36401 ft 473 kts 132°
2026-04-08 01:27 54.27884 124.16060 36388 ft 473 kts 132°
2026-04-08 01:28 54.23774 124.24770 36389 ft 474 kts 131°
2026-04-08 01:28 54.19645 124.33529 36393 ft 473 kts 131°
2026-04-08 01:29 54.15559 124.42223 36379 ft 474 kts 131°
2026-04-08 01:29 54.11436 124.51015 36353 ft 473 kts 131°
2026-04-08 01:30 54.07346 124.59679 36352 ft 473 kts 132°
2026-04-08 01:30 54.03097 124.68219 36353 ft 474 kts 134°
2026-04-08 01:31 53.98828 124.76783 36356 ft 475 kts 134°
2026-04-08 01:31 53.94591 124.85284 36357 ft 476 kts 134°
2026-04-08 01:32 53.90335 124.93832 36364 ft 475 kts 133°
2026-04-08 01:32 53.86062 125.02418 36355 ft 476 kts 133°
2026-04-08 01:33 53.81832 125.10935 36355 ft 476 kts 133°
2026-04-08 01:33 53.77557 125.19419 36359 ft 476 kts 133°
2026-04-08 01:34 53.73235 125.27927 36365 ft 475 kts 133°
2026-04-08 01:34 53.68957 125.36352 36366 ft 476 kts 133°
2026-04-08 01:35 53.64679 125.44768 36349 ft 475 kts 133°
2026-04-08 01:35 53.60388 125.53221 36348 ft 476 kts 133°
2026-04-08 01:36 53.56109 125.61683 36351 ft 476 kts 133°
2026-04-08 01:36 53.51835 125.70143 36347 ft 475 kts 133°
2026-04-08 01:37 53.47592 125.78542 36342 ft 475 kts 133°
2026-04-08 01:37 53.43481 125.87131 36345 ft 476 kts 131°
2026-04-08 01:38 53.39362 125.95806 36348 ft 475 kts 131°
2026-04-08 01:38 53.35236 126.04401 36359 ft 475 kts 131°
2026-04-08 01:39 53.31236 126.12727 36349 ft 476 kts 131°
2026-04-08 01:39 53.27125 126.21287 36354 ft 475 kts 131°
2026-04-08 01:40 53.23015 126.29848 36353 ft 475 kts 131°
2026-04-08 01:40 53.18896 126.38447 36358 ft 476 kts 131°
2026-04-08 01:41 53.14784 126.47043 36364 ft 476 kts 130°
2026-04-08 01:41 53.10685 126.55627 36369 ft 475 kts 130°
2026-04-08 01:42 53.06591 126.64212 36369 ft 475 kts 130°
2026-04-08 01:42 53.02511 126.72784 36356 ft 475 kts 131°
2026-04-08 01:43 52.98407 126.81404 36361 ft 476 kts 131°
2026-04-08 01:43 52.94328 126.89995 36368 ft 477 kts 131°
2026-04-08 01:44 52.90248 126.98604 36368 ft 476 kts 130°
2026-04-08 01:44 52.86158 127.07246 36362 ft 475 kts 130°
2026-04-08 01:45 52.82048 127.15850 36363 ft 475 kts 131°
2026-04-08 01:45 52.77887 127.24279 36375 ft 476 kts 131°
2026-04-08 01:46 52.73734 127.32686 36366 ft 475 kts 131°
2026-04-08 01:46 52.69567 127.41137 36372 ft 476 kts 131°
2026-04-08 01:47 52.65379 127.49516 36378 ft 475 kts 132°
2026-04-08 01:47 52.61076 127.57700 36368 ft 475 kts 133°
2026-04-08 01:48 52.56718 127.65844 36374 ft 475 kts 134°
2026-04-08 01:48 52.52367 127.73972 36374 ft 474 kts 134°
2026-04-08 01:49 52.48027 127.82069 36363 ft 474 kts 134°
2026-04-08 01:49 52.43685 127.90187 36378 ft 474 kts 134°
2026-04-08 01:50 52.39361 127.98274 36377 ft 474 kts 134°
2026-04-08 01:50 52.35030 128.06395 36389 ft 475 kts 133°
2026-04-08 01:51 52.30725 128.14482 36382 ft 475 kts 133°
2026-04-08 01:51 52.26412 128.22588 36386 ft 475 kts 133°
2026-04-08 01:52 52.22091 128.30721 36381 ft 475 kts 133°
2026-04-08 01:52 52.17777 128.38840 36381 ft 475 kts 133°
2026-04-08 01:53 52.13492 128.46921 36388 ft 476 kts 133°
2026-04-08 01:53 52.09182 128.55061 36393 ft 476 kts 133°
2026-04-08 01:54 52.05627 128.61791 36396 ft 475 kts 133°
2026-04-08 01:54 52.00597 128.71317 36393 ft 476 kts 133°
2026-04-08 01:55 51.96302 128.79460 36394 ft 476 kts 133°
2026-04-08 01:55 51.92017 128.87599 36383 ft 477 kts 133°
2026-04-08 01:56 51.87727 128.95758 36383 ft 477 kts 133°
2026-04-08 01:56 51.83430 129.03943 36377 ft 477 kts 133°
2026-04-08 01:57 51.79147 129.12106 36397 ft 478 kts 133°
2026-04-08 01:57 51.74876 129.20259 36402 ft 478 kts 133°
2026-04-08 01:58 51.70610 129.28409 36404 ft 478 kts 132°
2026-04-08 01:58 51.66350 129.36565 36415 ft 479 kts 132°
2026-04-08 01:59 51.62083 129.44748 36415 ft 478 kts 132°
2026-04-08 01:59 51.57841 129.52885 36417 ft 478 kts 131°
2026-04-08 02:00 51.53568 129.61102 36417 ft 479 kts 131°
2026-04-08 02:00 51.49323 129.69281 36407 ft 477 kts 132°
2026-04-08 02:01 51.42979 129.81505 36410 ft 479 kts 132°
2026-04-08 02:01 51.38744 129.89690 36407 ft 478 kts 132°
2026-04-08 02:02 51.34529 129.97836 36413 ft 478 kts 131°
2026-04-08 02:02 51.30166 130.05774 36419 ft 477 kts 135°
2026-04-08 02:03 51.25651 130.13500 36417 ft 478 kts 135°
2026-04-08 02:03 51.21120 130.21260 36423 ft 478 kts 135°
2026-04-08 02:04 51.16600 130.29010 36435 ft 479 kts 135°
2026-04-08 02:04 51.12107 130.36742 36441 ft 479 kts 135°
2026-04-08 02:05 51.07612 130.44473 36441 ft 478 kts 135°
2026-04-08 02:05 51.03095 130.52252 36444 ft 479 kts 135°
2026-04-08 02:06 50.98600 130.60002 36427 ft 479 kts 134°
2026-04-08 02:06 50.94120 130.67740 36415 ft 479 kts 135°
2026-04-08 02:07 50.89605 130.75546 36403 ft 478 kts 135°
2026-04-08 02:07 50.85132 130.83281 36402 ft 478 kts 135°
2026-04-08 02:08 50.80626 130.91051 36410 ft 480 kts 136°
2026-04-08 02:08 50.76048 130.98666 36421 ft 480 kts 136°
2026-04-08 02:09 50.71454 131.06241 36420 ft 480 kts 136°
2026-04-08 02:09 50.66862 131.13815 36425 ft 480 kts 136°
2026-04-08 02:10 50.62254 131.21419 36429 ft 481 kts 136°
2026-04-08 02:10 50.57681 131.28970 36436 ft 481 kts 136°
2026-04-08 02:11 50.53055 131.36620 36445 ft 482 kts 135°
2026-04-08 02:11 50.48455 131.44235 36450 ft 483 kts 135°
2026-04-08 02:12 50.43881 131.51814 36451 ft 482 kts 135°
2026-04-08 02:12 50.39288 131.59430 36455 ft 482 kts 135°
2026-04-08 02:13 50.34705 131.67047 36459 ft 483 kts 136°
2026-04-08 02:13 50.30167 131.74599 36467 ft 484 kts 136°
2026-04-08 02:14 50.25574 131.82234 36467 ft 484 kts 135°
2026-04-08 02:14 50.20971 131.89899 36475 ft 484 kts 135°
2026-04-08 02:15 50.16363 131.97467 36488 ft 484 kts 136°
2026-04-08 02:15 50.11698 132.04984 36488 ft 484 kts 136°
2026-04-08 02:16 50.07022 132.12518 36485 ft 484 kts 136°
2026-04-08 02:16 50.02420 132.20071 36483 ft 487 kts 129°
2026-04-08 02:17 50.00878 132.24689 36454 ft 486 kts 104°
2026-04-08 02:17 50.00454 132.29826 36544 ft 479 kts 83°
2026-04-08 02:17 50.01115 132.34760 36522 ft 466 kts 62°
2026-04-08 02:17 50.02790 132.38950 36532 ft 445 kts 39°
2026-04-08 02:18 50.05171 132.41771 36530 ft 425 kts 18°
2026-04-08 02:18 50.07922 132.42961 36528 ft 404 kts 356°
2026-04-08 02:18 50.10619 132.42415 36525 ft 387 kts 334°
2026-04-08 02:18 50.12872 132.40266 36521 ft 377 kts 313°
2026-04-08 02:19 50.14297 132.36940 36516 ft 375 kts 291°
2026-04-08 02:19 50.14735 132.32980 36535 ft 379 kts 274°
2026-04-08 02:19 50.14505 132.28838 36542 ft 385 kts 263°
2026-04-08 02:19 50.13764 132.24864 36494 ft 391 kts 253°
2026-04-08 02:20 50.12418 132.21120 36492 ft 401 kts 239°
2026-04-08 02:20 50.10435 132.18074 36486 ft 417 kts 221°
2026-04-08 02:20 50.07714 132.16220 36499 ft 439 kts 199°
2026-04-08 02:20 50.04624 132.16022 36522 ft 459 kts 178°
2026-04-08 02:21 50.01537 132.17563 36527 ft 476 kts 156°
2026-04-08 02:21 49.98913 132.20670 36532 ft 486 kts 134°
2026-04-08 02:21 49.97051 132.25040 36528 ft 488 kts 112°
2026-04-08 02:21 49.96220 132.30100 36528 ft 482 kts 90°
2026-04-08 02:22 49.96518 132.35207 36525 ft 471 kts 69°
2026-04-08 02:22 49.97854 132.39662 36530 ft 453 kts 47°
2026-04-08 02:22 50.00044 132.43013 36527 ft 432 kts 25°
2026-04-08 02:22 50.02713 132.44777 36524 ft 410 kts
2026-04-08 02:23 50.05451 132.44817 36522 ft 392 kts 342°
2026-04-08 02:23 50.07136 132.43910 36518 ft 383 kts 327°
2026-04-08 02:23 50.09651 132.40239 36529 ft 374 kts 301°
2026-04-08 02:23 50.10844 132.36667 36535 ft 375 kts 292°
2026-04-08 02:24 50.11869 132.28778 36497 ft 379 kts 272°
2026-04-08 02:24 50.11521 132.24681 36487 ft 386 kts 259°
2026-04-08 02:24 50.10403 132.20877 36487 ft 399 kts 241°
2026-04-08 02:25 50.08349 132.17844 36501 ft 420 kts 219°
2026-04-08 02:25 50.05548 132.16164 36530 ft 443 kts 197°
2026-04-08 02:25 50.02461 132.16135 36522 ft 463 kts 176°
2026-04-08 02:25 50.00368 132.17091 36525 ft 473 kts 161°
2026-04-08 02:26 49.96804 132.21129 36530 ft 486 kts 132°
2026-04-08 02:26 49.95052 132.25566 36528 ft 488 kts 110°
2026-04-08 02:26 49.94334 132.30659 36529 ft 482 kts 88°
2026-04-08 02:26 49.94742 132.35739 36532 ft 470 kts 66°
2026-04-08 02:27 49.96177 132.40126 36531 ft 452 kts 45°
2026-04-08 02:27 49.98425 132.43330 36533 ft 431 kts 23°
2026-04-08 02:27 50.01118 132.44943 36528 ft 410 kts
2026-04-08 02:27 50.03876 132.44827 36525 ft 391 kts 340°
2026-04-08 02:28 50.06249 132.43086 36522 ft 379 kts 318°
2026-04-08 02:28 50.08071 132.40202 36558 ft 374 kts 307°
2026-04-08 02:28 50.10550 132.33151 36491 ft 374 kts 289°
2026-04-08 02:29 50.11088 132.29161 36485 ft 376 kts 277°
2026-04-08 02:29 50.11097 132.26437 36480 ft 380 kts 268°
2026-04-08 02:29 50.10470 132.22472 36476 ft 390 kts 251°
2026-04-08 02:29 50.08118 132.18018 36482 ft 416 kts 222°
2026-04-08 02:30 50.05434 132.16124 36502 ft 439 kts 200°
2026-04-08 02:30 50.02353 132.15843 36509 ft 459 kts 179°
2026-04-08 02:30 49.99248 132.17300 36512 ft 476 kts 157°
2026-04-08 02:30 49.96571 132.20367 36518 ft 486 kts 135°
2026-04-08 02:31 49.94678 132.24666 36520 ft 488 kts 113°
2026-04-08 02:31 49.93797 132.29701 36527 ft 483 kts 91°
2026-04-08 02:31 49.94036 132.34817 36535 ft 471 kts 70°
2026-04-08 02:31 49.95332 132.39352 36531 ft 454 kts 48°
2026-04-08 02:32 49.97461 132.42737 36533 ft 434 kts 26°
2026-04-08 02:32 50.00137 132.44615 36532 ft 413 kts
2026-04-08 02:32 50.01995 132.44897 36526 ft 399 kts 350°
2026-04-08 02:32 50.05362 132.43218 36527 ft 379 kts 321°
2026-04-08 02:33 50.07303 132.40508 36564 ft 374 kts 310°
2026-04-08 02:33 50.08880 132.37299 36508 ft 374 kts 301°
2026-04-08 02:33 50.10757 132.29894 36498 ft 374 kts 281°
2026-04-08 02:34 50.10844 132.25861 36485 ft 381 kts 267°
2026-04-08 02:34 50.10124 132.21866 36477 ft 393 kts 249°
2026-04-08 02:34 50.08395 132.18480 36488 ft 412 kts 226°
2026-04-08 02:34 50.05844 132.16255 36505 ft 433 kts 205°
2026-04-08 02:35 50.02829 132.15599 36504 ft 455 kts 184°
2026-04-08 02:35 49.99709 132.16664 36516 ft 472 kts 162°
2026-04-08 02:35 49.96907 132.19386 36509 ft 483 kts 140°
2026-04-08 02:35 49.94800 132.23494 36516 ft 488 kts 118°
2026-04-08 02:36 49.93694 132.28366 36512 ft 485 kts 96°
2026-04-08 02:36 49.93685 132.33513 36521 ft 475 kts 75°
2026-04-08 02:36 49.94764 132.38245 36519 ft 458 kts 53°
2026-04-08 02:36 49.96715 132.41896 36519 ft 439 kts 31°
2026-04-08 02:37 49.99305 132.44147 36526 ft 417 kts
2026-04-08 02:37 50.02103 132.44676 36514 ft 398 kts 348°
2026-04-08 02:37 50.04647 132.43517 36520 ft 382 kts 326°
2026-04-08 02:37 50.06724 132.40999 36552 ft 376 kts 312°
2026-04-08 02:38 50.09714 132.34421 36503 ft 373 kts 294°
2026-04-08 02:38 50.10793 132.26607 36495 ft 378 kts 271°
2026-04-08 02:39 50.10261 132.22591 36487 ft 389 kts 253°
2026-04-08 02:39 50.09369 132.20151 36489 ft 401 kts 238°
2026-04-08 02:39 50.06342 132.16544 36529 ft 428 kts 210°
2026-04-08 02:39 50.03408 132.15514 36507 ft 451 kts 188°
2026-04-08 02:40 50.01297 132.15771 36512 ft 464 kts 174°
2026-04-08 02:40 49.97321 132.18588 36512 ft 482 kts 145°
2026-04-08 02:40 49.95055 132.22376 36514 ft 488 kts 123°
2026-04-08 02:40 49.93696 132.27155 36509 ft 487 kts 101°
2026-04-08 02:41 49.93428 132.32271 36517 ft 478 kts 80°
2026-04-08 02:41 49.94255 132.37143 36516 ft 463 kts 58°
2026-04-08 02:41 49.96053 132.41141 36517 ft 442 kts 36°
2026-04-08 02:41 49.98502 132.43720 36520 ft 421 kts 14°
2026-04-08 02:42 50.00368 132.44542 36515 ft 408 kts 360°
2026-04-08 02:42 50.03939 132.43851 36510 ft 385 kts 331°
2026-04-08 02:42 50.06132 132.41573 36535 ft 377 kts 315°
2026-04-08 02:42 50.07903 132.38650 36515 ft 376 kts 306°
2026-04-08 02:43 50.10045 132.32799 36486 ft 373 kts 290°
2026-04-08 02:43 50.10731 132.27583 36477 ft 376 kts 274°
2026-04-08 02:43 50.10413 132.23483 36477 ft 386 kts 258°
2026-04-08 02:44 50.09135 132.19774 36484 ft 403 kts 236°
2026-04-08 02:44 50.06936 132.16991 36530 ft 422 kts 216°
2026-04-08 02:44 50.04111 132.15556 36510 ft 445 kts 194°
2026-04-08 02:44 50.00943 132.15807 36531 ft 465 kts 172°
2026-04-08 02:45 49.97966 132.17750 36528 ft 480 kts 150°
2026-04-08 02:45 49.96220 132.19940 36527 ft 485 kts 136°
2026-04-08 02:45 49.94289 132.24228 36530 ft 489 kts 114°
2026-04-08 02:45 49.93313 132.30927 36530 ft 482 kts 85°
2026-04-08 02:46 49.93877 132.35985 36534 ft 469 kts 64°
2026-04-08 02:46 49.94819 132.38933 36530 ft 456 kts 49°
2026-04-08 02:46 49.97757 132.43227 36529 ft 427 kts 20°
2026-04-08 02:46 50.00506 132.44621 36523 ft 407 kts 358°
2026-04-08 02:47 50.03214 132.44273 36518 ft 389 kts 337°
2026-04-08 02:47 50.05541 132.42335 36530 ft 377 kts 318°
2026-04-08 02:47 50.08957 132.36270 36505 ft 374 kts 300°
2026-04-08 02:48 50.10536 132.30104 36492 ft 373 kts 283°
2026-04-08 02:48 50.10600 132.24724 36479 ft 381 kts 263°
2026-04-08 02:48 50.09631 132.20821 36472 ft 396 kts 243°
2026-04-08 02:49 50.07673 132.17712 36513 ft 416 kts 222°
2026-04-08 02:49 50.05958 132.16289 36507 ft 430 kts 208°
2026-04-08 02:49 50.01908 132.15553 36495 ft 459 kts 178°
2026-04-08 02:49 49.99815 132.16351 36509 ft 470 kts 164°
2026-04-08 02:50 49.96170 132.20079 36507 ft 486 kts 135°
2026-04-08 02:50 49.94274 132.24400 36508 ft 488 kts 113°
2026-04-08 02:50 49.93569 132.27712 36505 ft 486 kts 99°
2026-04-08 02:50 49.93645 132.34499 36522 ft 472 kts 70°
2026-04-08 02:51 49.94945 132.39049 36518 ft 455 kts 48°
2026-04-08 02:51 49.97075 132.42433 36527 ft 435 kts 26°
2026-04-08 02:51 49.98849 132.43890 36535 ft 420 kts 12°
2026-04-08 02:51 50.02511 132.44466 36522 ft 394 kts 343°
2026-04-08 02:52 50.04991 132.42938 36531 ft 380 kts 322°
2026-04-08 02:52 50.06960 132.40299 36564 ft 375 kts 311°
2026-04-08 02:52 50.09829 132.33612 36496 ft 373 kts 292°
2026-04-08 02:53 50.10691 132.25726 36483 ft 379 kts 268°
2026-04-08 02:53 50.09983 132.21790 36472 ft 390 kts 249°
2026-04-08 02:53 50.08272 132.18445 36494 ft 410 kts 227°
2026-04-08 02:54 50.05756 132.16173 36501 ft 432 kts 206°
2026-04-08 02:54 50.02726 132.15448 36484 ft 453 kts 184°
2026-04-08 02:54 49.99627 132.16458 36513 ft 472 kts 163°
2026-04-08 02:54 49.96779 132.19163 36508 ft 484 kts 141°
2026-04-08 02:55 49.95262 132.21747 36512 ft 489 kts 126°
2026-04-08 02:55 49.93769 132.26393 36508 ft 488 kts 104°
2026-04-08 02:55 49.93338 132.31554 36512 ft 480 kts 83°
2026-04-08 02:55 49.94478 132.38010 36510 ft 461 kts 54°
2026-04-08 02:56 49.96402 132.41734 36511 ft 441 kts 32°
2026-04-08 02:56 49.98969 132.44066 36515 ft 420 kts 11°
2026-04-08 02:56 50.00831 132.44681 36508 ft 406 kts 356°
2026-04-08 02:56 50.04356 132.43613 36507 ft 383 kts 327°
2026-04-08 02:57 50.06455 132.41183 36540 ft 377 kts 313°
2026-04-08 02:57 50.07662 132.39186 36527 ft 376 kts 308°
2026-04-08 02:57 50.09555 132.34671 36486 ft 374 kts 295°
2026-04-08 02:57 50.10443 132.30930 36487 ft 374 kts 285°
2026-04-08 02:58 50.10753 132.26914 36488 ft 377 kts 272°
2026-04-08 02:58 50.10549 132.24223 36487 ft 383 kts 261°
2026-04-08 02:58 50.08871 132.19304 36496 ft 405 kts 233°
2026-04-08 02:58 50.06537 132.16679 36529 ft 426 kts 212°
2026-04-08 02:59 50.04650 132.15709 36506 ft 442 kts 198°
2026-04-08 02:59 50.00488 132.16011 36508 ft 467 kts 169°
2026-04-08 02:59 49.97519 132.18259 36511 ft 482 kts 147°
2026-04-08 03:00 49.93719 132.26671 36511 ft 489 kts 104°
2026-04-08 03:00 49.93343 132.30110 36514 ft 484 kts 89°
2026-04-08 03:00 49.93716 132.35193 36518 ft 472 kts 67°
2026-04-08 03:00 49.95792 132.40877 36517 ft 447 kts 38°
2026-04-08 03:01 49.97350 132.42889 36520 ft 432 kts 24°
2026-04-08 03:01 50.00015 132.44565 36519 ft 412 kts
2026-04-08 03:01 50.03658 132.44148 36517 ft 387 kts 333°
2026-04-08 03:01 50.05904 132.42018 36532 ft 378 kts 316°
2026-04-08 03:02 50.07723 132.39137 36530 ft 375 kts 307°
2026-04-08 03:02 50.10243 132.32106 36488 ft 373 kts 288°
2026-04-08 03:02 50.10744 132.28174 36485 ft 376 kts 276°
2026-04-08 03:03 50.10703 132.25499 36484 ft 380 kts 266°
2026-04-08 03:03 50.09431 132.20332 36486 ft 399 kts 239°
2026-04-08 03:03 50.08123 132.18236 36517 ft 411 kts 226°
2026-04-08 03:03 50.04608 132.15709 36513 ft 440 kts 197°
2026-04-08 03:04 50.01481 132.15697 36524 ft 461 kts 175°
2026-04-08 03:04 49.98460 132.17401 36529 ft 477 kts 154°
2026-04-08 03:04 49.95885 132.20688 36529 ft 487 kts 132°
2026-04-08 03:04 49.94128 132.25162 36529 ft 489 kts 110°
2026-04-08 03:05 49.93418 132.30226 36531 ft 484 kts 89°
2026-04-08 03:05 49.93828 132.35365 36534 ft 472 kts 67°
2026-04-08 03:05 49.95261 132.39763 36529 ft 454 kts 45°
2026-04-08 03:05 49.97509 132.42986 36533 ft 433 kts 23°
2026-04-08 03:06 49.99712 132.44458 36533 ft 416 kts
2026-04-08 03:06 50.02441 132.44701 36519 ft 390 kts 345°
2026-04-08 03:06 50.04899 132.43396 36201 ft 366 kts 323°
2026-04-08 03:06 50.06670 132.40739 35822 ft 350 kts 300°
2026-04-08 03:07 50.07307 132.38496 35593 ft 346 kts 285°
2026-04-08 03:07 50.07360 132.34796 35242 ft 347 kts 261°
2026-04-08 03:07 50.05756 132.30490 34784 ft 363 kts 229°
2026-04-08 03:07 50.04356 132.29013 34557 ft 373 kts 212°
2026-04-08 03:08 50.00867 132.28130 34102 ft 395 kts 178°
2026-04-08 03:08 49.98268 132.29469 33779 ft 405 kts 153°
2026-04-08 03:08 49.96784 132.31236 33592 ft 408 kts 135°
2026-04-08 03:08 49.94603 132.36009 33264 ft 403 kts 122°
2026-04-08 03:09 49.93166 132.39696 33004 ft 403 kts 122°
2026-04-08 03:09 49.91718 132.43430 32737 ft 404 kts 122°
2026-04-08 03:09 49.90266 132.47156 32473 ft 407 kts 122°
2026-04-08 03:09 49.88796 132.50922 32207 ft 408 kts 122°
2026-04-08 03:10 49.87329 132.54672 31921 ft 411 kts 122°
2026-04-08 03:10 49.85841 132.58469 31635 ft 412 kts 122°
2026-04-08 03:10 49.84359 132.62241 31352 ft 411 kts 122°
2026-04-08 03:10 49.82872 132.66029 31058 ft 411 kts 123°
2026-04-08 03:11 49.81396 132.69781 30683 ft 410 kts 123°
2026-04-08 03:11 49.79890 132.73601 30298 ft 410 kts 123°
2026-04-08 03:11 49.78402 132.77365 29916 ft 409 kts 123°
2026-04-08 03:11 49.76923 132.81094 29526 ft 409 kts 123°
2026-04-08 03:12 49.75441 132.84825 29102 ft 409 kts 123°
2026-04-08 03:12 49.73959 132.88550 28615 ft 410 kts 123°
2026-04-08 03:12 49.72464 132.92310 28130 ft 410 kts 123°
2026-04-08 03:12 49.70968 132.96063 27665 ft 414 kts 123°
2026-04-08 03:13 49.69457 132.99846 27197 ft 416 kts 123°
2026-04-08 03:13 49.67947 133.03622 26724 ft 417 kts 123°
2026-04-08 03:13 49.66432 133.07408 26110 ft 412 kts 123°
2026-04-08 03:13 49.64934 133.11150 25608 ft 414 kts 123°
2026-04-08 03:14 49.63419 133.14928 25233 ft 417 kts 123°
2026-04-08 03:14 49.61893 133.18727 24748 ft 418 kts 123°
2026-04-08 03:14 49.60379 133.22499 24240 ft 418 kts 123°
2026-04-08 03:14 49.58861 133.26266 23695 ft 413 kts 123°
2026-04-08 03:15 49.57364 133.29985 23085 ft 408 kts 123°
2026-04-08 03:15 49.55899 133.33617 22791 ft 396 kts 123°
2026-04-08 03:15 49.54462 133.37178 22281 ft 391 kts 123°
2026-04-08 03:15 49.53021 133.40749 21700 ft 389 kts 122°
2026-04-08 03:16 49.51612 133.44240 21169 ft 385 kts 123°
2026-04-08 03:16 49.50212 133.47705 20650 ft 382 kts 123°
2026-04-08 03:16 49.49289 133.49985 20269 ft 380 kts 123°
2026-04-08 03:16 49.47896 133.53418 19770 ft 377 kts 123°
2026-04-08 03:17 49.46528 133.56789 19256 ft 374 kts 123°
2026-04-08 03:17 49.44714 133.61267 18571 ft 370 kts 122°
2026-04-08 03:17 49.43348 133.64635 18162 ft 369 kts 122°
2026-04-08 03:17 49.42455 133.66864 17893 ft 368 kts 123°
2026-04-08 03:18 49.41222 133.69829 17521 ft 364 kts 124°
2026-04-08 03:18 49.39439 133.73991 16985 ft 359 kts 125°
2026-04-08 03:18 49.38526 133.76120 16706 ft 358 kts 124°
2026-04-08 03:18 49.37163 133.79288 16289 ft 354 kts 124°
2026-04-08 03:19 49.35812 133.82440 15881 ft 352 kts 124°
2026-04-08 03:19 49.34490 133.85518 15540 ft 348 kts 125°
2026-04-08 03:19 49.32723 133.89632 15163 ft 346 kts 124°
2026-04-08 03:19 49.31401 133.92709 14911 ft 345 kts 124°
2026-04-08 03:20 49.30533 133.94734 14742 ft 345 kts 124°
2026-04-08 03:20 49.29211 133.97818 14482 ft 344 kts 124°
2026-04-08 03:20 49.27474 134.01877 14141 ft 342 kts 124°
2026-04-08 03:20 49.26190 134.04880 13885 ft 340 kts 124°
2026-04-08 03:21 49.24897 134.07915 13627 ft 339 kts 124°
2026-04-08 03:21 49.24040 134.09923 13455 ft 338 kts 124°
2026-04-08 03:21 49.22332 134.13930 13208 ft 337 kts 124°
2026-04-08 03:21 49.21059 134.16908 13034 ft 337 kts 124°
2026-04-08 03:22 49.19778 134.19908 12859 ft 336 kts 124°
2026-04-08 03:22 49.18935 134.21890 12738 ft 336 kts 124°
2026-04-08 03:22 49.17232 134.25885 12501 ft 336 kts 124°
2026-04-08 03:22 49.15968 134.28854 12323 ft 335 kts 124°
2026-04-08 03:23 49.15115 134.30858 12201 ft 335 kts 124°
2026-04-08 03:23 49.13426 134.34833 11959 ft 334 kts 124°
2026-04-08 03:23 49.12177 134.37769 11783 ft 333 kts 124°
2026-04-08 03:23 49.11331 134.39760 11666 ft 333 kts 124°
2026-04-08 03:24 49.10081 134.42709 11489 ft 332 kts 124°
2026-04-08 03:24 49.08421 134.46634 11240 ft 331 kts 124°
2026-04-08 03:24 49.07592 134.48625 11100 ft 331 kts 123°
2026-04-08 03:24 49.06018 134.52603 10823 ft 325 kts 122°
2026-04-08 03:25 49.04874 134.55499 10594 ft 318 kts 122°
2026-04-08 03:25 49.03732 134.58372 10310 ft 313 kts 122°
2026-04-08 03:25 49.02623 134.61162 9915 ft 308 kts 122°
2026-04-08 03:25 49.01543 134.63867 9450 ft 291 kts 123°
2026-04-08 03:26 49.00515 134.66443 9062 ft 275 kts 124°
2026-04-08 03:26 48.99870 134.68059 8806 ft 266 kts 124°
2026-04-08 03:26 48.98772 134.70807 8408 ft 258 kts 125°
2026-04-08 03:26 48.97829 134.73157 8113 ft 260 kts 125°
2026-04-08 03:27 48.96883 134.75513 7757 ft 262 kts 125°
2026-04-08 03:27 48.96262 134.77051 7520 ft 260 kts 125°
2026-04-08 03:27 48.95009 134.80159 7210 ft 256 kts 125°
2026-04-08 03:27 48.94087 134.82448 6952 ft 256 kts 125°
2026-04-08 03:28 48.93461 134.84003 6780 ft 256 kts 126°
2026-04-08 03:28 48.92241 134.87039 6378 ft 251 kts 126°
2026-04-08 03:28 48.91646 134.88516 6143 ft 242 kts 126°
2026-04-08 03:28 48.90517 134.91318 5746 ft 225 kts 127°
2026-04-08 03:29 48.89727 134.93286 5594 ft 209 kts 127°
2026-04-08 03:29 48.89270 134.94415 5447 ft 208 kts 127°
2026-04-08 03:29 48.88841 134.95468 5241 ft 210 kts 128°
2026-04-08 03:29 48.88073 134.97359 4892 ft 212 kts 127°
2026-04-08 03:30 48.87312 134.99223 4625 ft 209 kts 128°
2026-04-08 03:30 48.86577 135.01044 4424 ft 195 kts 128°
2026-04-08 03:30 48.85643 135.03357 3960 ft 190 kts 128°
2026-04-08 03:30 48.84960 135.05032 3705 ft 181 kts 129°
2026-04-08 03:31 48.84532 135.06088 3585 ft 174 kts 129°
2026-04-08 03:31 48.83714 135.08095 3338 ft 163 kts 129°
2026-04-08 03:31 48.83132 135.09523 3138 ft 158 kts 129°
2026-04-08 03:31 48.82746 135.10465 3103 ft 157 kts 129°
2026-04-08 03:32 48.82165 135.11885 3110 ft 161 kts 130°
2026-04-08 03:32 48.81373 135.13821 3106 ft 164 kts 129°
2026-04-08 03:32 48.80776 135.15286 3095 ft 163 kts 129°
2026-04-08 03:32 48.80181 135.16746 3093 ft 164 kts 129°
2026-04-08 03:33 48.79583 135.18219 3104 ft 163 kts 130°
2026-04-08 03:33 48.79184 135.19196 3110 ft 164 kts 130°
2026-04-08 03:33 48.78383 135.21147 3114 ft 165 kts 130°
2026-04-08 03:33 48.77777 135.22627 3117 ft 164 kts 129°
2026-04-08 03:34 48.77173 135.24098 3114 ft 164 kts 129°
2026-04-08 03:34 48.76778 135.25072 3111 ft 165 kts 129°
2026-04-08 03:34 48.76176 135.26547 3112 ft 164 kts 130°
2026-04-08 03:34 48.75572 135.28015 3097 ft 162 kts 132°
2026-04-08 03:35 48.74762 135.29038 3020 ft 148 kts 164°
2026-04-08 03:35 48.73806 135.29511 2965 ft 144 kts 173°
2026-04-08 03:35 48.72842 135.29903 2897 ft 143 kts 174°
2026-04-08 03:35 48.71877 135.30289 2843 ft 143 kts 174°
2026-04-08 03:36 48.71199 135.30559 2852 ft 143 kts 174°
2026-04-08 03:36 48.70128 135.30995 2850 ft 142 kts 173°
2026-04-08 03:36 48.69156 135.31396 2854 ft 143 kts 173°
2026-04-08 03:36 48.68514 135.31662 2853 ft 143 kts 173°
2026-04-08 03:37 48.67230 135.32201 2854 ft 144 kts 173°
2026-04-08 03:37 48.66581 135.32474 2846 ft 144 kts 173°
2026-04-08 03:37 48.65289 135.33019 2853 ft 145 kts 173°
2026-04-08 03:37 48.64643 135.33279 2842 ft 143 kts 176°
2026-04-08 03:38 48.63743 135.32979 2654 ft 132 kts 215°
2026-04-08 03:38 48.62741 135.31940 2465 ft 129 kts 218°
2026-04-08 03:38 48.62253 135.31427 2343 ft 128 kts 219°
2026-04-08 03:38 48.61365 135.30243 2109 ft 128 kts 225°
2026-04-08 03:39 48.60934 135.29645 1994 ft 126 kts 225°
2026-04-08 03:39 48.60066 135.28458 1774 ft 126 kts 225°
2026-04-08 03:39 48.59635 135.27867 1664 ft 127 kts 224°
2026-04-08 03:39 48.58987 135.26984 1500 ft 125 kts 223°
2026-04-08 03:40 48.58127 135.25809 1288 ft 124 kts 225°
2026-04-08 03:40 48.57689 135.25215 1176 ft 128 kts 224°
2026-04-08 03:40 48.56827 135.24040 964 ft 128 kts 224°
2026-04-08 03:40 48.56382 135.23438 862 ft 124 kts 224°
2026-04-08 03:41 48.55753 135.22574 704 ft 125 kts 225°
2026-04-08 03:41 48.55097 135.21680 552 ft 129 kts 224°
2026-04-08 03:41 48.54444 135.20783 430 ft 126 kts 224°
2026-04-08 03:41 48.53576 135.19646 257 ft 117 kts 223°
2026-04-08 03:42 48.53233 135.19156 254 ft 74 kts 221°
2026-04-08 03:42 48.53008 135.18846 255 ft 34 kts 223°
2026-04-08 03:42 48.52782 135.18541 255 ft 31 kts 221°
2026-04-08 03:42 48.52677 135.18396 255 ft 27 kts 229°
2026-04-08 03:43 48.52733 135.18114 260 ft 22 kts 311°
2026-04-08 03:43 48.52801 135.18002 262 ft 21 kts 312°
2026-04-08 03:43 48.52895 135.17853 266 ft 17 kts 312°
2026-04-08 03:43 48.52913 135.17740 268 ft 10 kts 233°
2026-04-08 03:44 48.52865 135.17671 269 ft 8 kts 222°
2026-04-08 03:44 48.52813 135.17598 269 ft 6 kts 224°
2026-04-08 03:44 48.52791 135.17566 269 ft 6 kts 224°
2026-04-08 03:44 48.52735 135.17508 268 ft 11 kts 199°
2026-04-08 03:45 48.52617 135.17499 265 ft 18 kts 197°
2026-04-08 03:45 48.52544 135.17389 264 ft 10 kts 287°
2026-04-08 03:45 48.52568 135.17339 265 ft 7 kts 306°
2026-04-08 03:45 48.52578 135.17320 265 ft 0 kts 313°